• In United Kingdom
  • List of Countries
  • For 7 days
  • Water Temperature
  • Satellite Maps
  • Weather Map
  • Weather Widgets
  • user-avatar
    Login

    Hourly Weather Ghent

    Today, 20 October, Saturday

    Time Temperature Precipitation Wind Pressure Humidity
    00:00 +9°C° 0 mm 2 mps 770 mmHg 87%
    01:00 +8°C° 0 mm 2 mps 770 mmHg 88%
    02:00 +9°C° 0 mm 1 mps 770 mmHg 89%
    03:00 +9°C° 0 mm 1 mps 770 mmHg 90%
    04:00 +8°C° 0 mm 1 mps 771 mmHg 90%
    05:00 +8°C° 0 mm 1 mps 771 mmHg 90%
    06:00 +8°C° 0 mm 1 mps 771 mmHg 90%
    07:00 +9°C° 0 mm 1 mps 772 mmHg 84%
    08:00 +11°C° 0 mm 1 mps 772 mmHg 78%
    09:00 +12°C° 0 mm 1 mps 772 mmHg 72%
    10:00 +14°C° 0 mm 1 mps 772 mmHg 66%
    11:00 +15°C° 0 mm 1 mps 772 mmHg 61%
    12:00 +16°C° 0 mm 1 mps 772 mmHg 55%
    13:00 +16°C° 0 mm 1 mps 772 mmHg 55%
    14:00 +16°C° 0 mm 1 mps 772 mmHg 55%
    15:00 +16°C° 0 mm 1 mps 772 mmHg 55%
    16:00 +15°C° 0 mm 1 mps 772 mmHg 60%
    17:00 +14°C° 0 mm 1 mps 772 mmHg 65%
    18:00 +13°C° 0 mm 1 mps 772 mmHg 69%
    19:00 +12°C° 0 mm 1 mps 772 mmHg 72%
    20:00 +12°C° 0 mm 1 mps 772 mmHg 75%
    21:00 +11°C° 0 mm 1 mps 772 mmHg 78%
    22:00 +11°C° 0 mm 1 mps 772 mmHg 78%
    23:00 +10°C° 0 mm 1 mps 772 mmHg 79%

    Tomorrow, 21 October, Sunday

    Time Temperature Precipitation Wind Pressure Humidity
    00:00 +10°C° 0 mm 1 mps 772 mmHg 80%
    01:00 +10°C° 0 mm 1 mps 771 mmHg 81%
    02:00 +9°C° 0 mm 1 mps 771 mmHg 81%
    03:00 +9°C° 0 mm 1 mps 771 mmHg 81%
    04:00 +9°C° 0 mm 1 mps 771 mmHg 81%
    05:00 +9°C° 0 mm 1 mps 771 mmHg 81%
    06:00 +9°C° 0 mm 1 mps 770 mmHg 81%
    07:00 +10°C° 0 mm 1 mps 770 mmHg 75%
    08:00 +12°C° 0 mm 1 mps 770 mmHg 70%
    09:00 +13°C° 0 mm 1 mps 770 mmHg 64%
    10:00 +15°C° 0 mm 1 mps 770 mmHg 61%
    11:00 +16°C° 0 mm 1 mps 770 mmHg 58%
    12:00 +18°C° 0 mm 1 mps 769 mmHg 54%
    13:00 +18°C° 0 mm 1 mps 769 mmHg 55%
    14:00 +19°C° 0 mm 1 mps 769 mmHg 55%
    15:00 +19°C° 0 mm 1 mps 768 mmHg 56%
    16:00 +16°C° 0 mm 1 mps 768 mmHg 61%
    17:00 +15°C° 0 mm 1 mps 769 mmHg 67%
    18:00 +13°C° 0 mm 1 mps 769 mmHg 73%
    19:00 +13°C° 0 mm 1 mps 769 mmHg 75%
    20:00 +13°C° 0 mm 1 mps 769 mmHg 77%
    21:00 +12°C° 0 mm 1 mps 769 mmHg 79%
    22:00 +13°C° 0 mm 1 mps 769 mmHg 80%
    23:00 +13°C° 0 mm 2 mps 769 mmHg 81%

    Day after tomorrow, 22 October, Monday

    Time Temperature Precipitation Wind Pressure Humidity
    00:00 +13°C° 0 mm 2 mps 769 mmHg 81%
    01:00 +12°C° 0.2 mm 3 mps 769 mmHg 83%
    02:00 +13°C° 0.2 mm 4 mps 769 mmHg 85%
    03:00 +13°C° 0.2 mm 5 mps 770 mmHg 86%
    04:00 +13°C° 0.4 mm 6 mps 770 mmHg 86%
    05:00 +13°C° 0.4 mm 6 mps 770 mmHg 85%
    06:00 +11°C° 0.4 mm 7 mps 771 mmHg 84%
    07:00 +11°C° 0.2 mm 7 mps 772 mmHg 81%
    08:00 +11°C° 0.2 mm 7 mps 772 mmHg 78%
    09:00 +11°C° 0.2 mm 6 mps 773 mmHg 75%
    10:00 +12°C° 0 mm 7 mps 773 mmHg 70%
    11:00 +12°C° 0 mm 7 mps 774 mmHg 65%
    12:00 +12°C° 0 mm 7 mps 774 mmHg 61%
    13:00 +13°C° 0 mm 6 mps 774 mmHg 60%
    14:00 +13°C° 0 mm 6 mps 774 mmHg 59%
    15:00 +11°C° 0 mm 6 mps 774 mmHg 59%
    16:00 +10°C° 0 mm 5 mps 775 mmHg 61%
    17:00 +10°C° 0 mm 5 mps 775 mmHg 62%
    18:00 +10°C° 0 mm 4 mps 775 mmHg 64%
    19:00 +9°C° 0 mm 3 mps 776 mmHg 65%
    20:00 +9°C° 0 mm 3 mps 776 mmHg 66%
    21:00 +9°C° 0 mm 2 mps 776 mmHg 67%
    22:00 +9°C° 0 mm 2 mps 776 mmHg 67%
    23:00 +9°C° 0 mm 2 mps 776 mmHg 66%

    23 October, Tuesday

    Time Temperature Precipitation Wind Pressure Humidity
    00:00 +9°C° 0 mm 2 mps 776 mmHg 66%
    01:00 +9°C° 0 mm 2 mps 776 mmHg 67%
    02:00 +9°C° 0 mm 2 mps 775 mmHg 69%
    03:00 +9°C° 0 mm 3 mps 775 mmHg 70%
    04:00 +9°C° 0 mm 3 mps 775 mmHg 72%
    05:00 +9°C° 0 mm 3 mps 775 mmHg 75%
    06:00 +8°C° 0 mm 3 mps 774 mmHg 77%
    07:00 +8°C° 0 mm 4 mps 774 mmHg 76%
    08:00 +10°C° 0 mm 4 mps 774 mmHg 75%
    09:00 +10°C° 0 mm 5 mps 774 mmHg 74%
    10:00 +12°C° 0 mm 5 mps 773 mmHg 74%
    11:00 +12°C° 0 mm 5 mps 773 mmHg 73%
    12:00 +12°C° 0 mm 5 mps 773 mmHg 73%
    13:00 +12°C° 0 mm 5 mps 772 mmHg 73%
    14:00 +12°C° 0 mm 5 mps 772 mmHg 74%
    15:00 +13°C° 0 mm 5 mps 771 mmHg 74%
    16:00 +12°C° 0 mm 5 mps 771 mmHg 77%
    17:00 +10°C° 0 mm 5 mps 771 mmHg 80%
    18:00 +10°C° 0 mm 5 mps 771 mmHg 83%
    19:00 +10°C° 0 mm 5 mps 771 mmHg 84%
    20:00 +10°C° 0 mm 5 mps 771 mmHg 84%
    21:00 +10°C° 0 mm 5 mps 771 mmHg 85%
    22:00 +12°C° 0 mm 5 mps 771 mmHg 86%
    23:00 +12°C° 0 mm 5 mps 770 mmHg 86%

    24 October, Wednesday

    Time Temperature Precipitation Wind Pressure Humidity
    00:00 +12°C° 0 mm 5 mps 770 mmHg 87%
    01:00 +12°C° 0 mm 4 mps 770 mmHg 88%
    02:00 +12°C° 0 mm 4 mps 770 mmHg 89%
    03:00 +12°C° 0 mm 4 mps 770 mmHg 91%
    04:00 +12°C° 0 mm 4 mps 770 mmHg 91%
    05:00 +12°C° 0 mm 4 mps 770 mmHg 91%
    06:00 +12°C° 0 mm 4 mps 770 mmHg 92%
    07:00 +13°C° 0 mm 4 mps 770 mmHg 89%
    08:00 +14°C° 0 mm 5 mps 770 mmHg 86%
    09:00 +15°C° 0 mm 5 mps 770 mmHg 83%
    10:00 +16°C° 0 mm 5 mps 770 mmHg 82%
    11:00 +16°C° 0 mm 5 mps 770 mmHg 81%
    12:00 +16°C° 0 mm 5 mps 770 mmHg 80%
    13:00 +16°C° 0 mm 5 mps 770 mmHg 80%
    14:00 +17°C° 0 mm 4 mps 770 mmHg 81%
    15:00 +17°C° 0 mm 4 mps 770 mmHg 82%
    16:00 +15°C° 0 mm 4 mps 770 mmHg 84%
    17:00 +16°C° 0 mm 3 mps 770 mmHg 86%
    18:00 +14°C° 0 mm 3 mps 770 mmHg 89%
    19:00 +14°C° 0 mm 3 mps 770 mmHg 90%
    20:00 +15°C° 0 mm 2 mps 770 mmHg 91%
    21:00 +14°C° 0 mm 2 mps 770 mmHg 92%
    22:00 +14°C° 0 mm 2 mps 770 mmHg 92%
    23:00 +14°C° 0 mm 2 mps 770 mmHg 92%

    25 October, Thursday

    Time Temperature Precipitation Wind Pressure Humidity
    00:00 +14°C° 0 mm 2 mps 770 mmHg 92%
    01:00 +13°C° 0 mm 3 mps 769 mmHg 93%
    02:00 +13°C° 0 mm 3 mps 769 mmHg 93%
    03:00 +13°C° 0 mm 3 mps 769 mmHg 93%
    04:00 +12°C° 0 mm 3 mps 768 mmHg 93%
    05:00 +12°C° 0 mm 4 mps 768 mmHg 93%
    06:00 +11°C° 0 mm 4 mps 768 mmHg 93%
    07:00 +12°C° 0 mm 4 mps 768 mmHg 87%
    08:00 +12°C° 0 mm 4 mps 768 mmHg 82%
    09:00 +13°C° 0 mm 5 mps 768 mmHg 77%
    10:00 +13°C° 0 mm 5 mps 767 mmHg 74%
    11:00 +14°C° 0 mm 5 mps 767 mmHg 71%
    12:00 +14°C° 0 mm 5 mps 767 mmHg 68%
    13:00 +14°C° 0 mm 5 mps 767 mmHg 69%
    14:00 +14°C° 0 mm 5 mps 766 mmHg 69%
    15:00 +13°C° 0 mm 5 mps 766 mmHg 70%
    16:00 +13°C° 0 mm 5 mps 766 mmHg 71%
    17:00 +12°C° 0 mm 4 mps 766 mmHg 72%
    18:00 +12°C° 0 mm 4 mps 766 mmHg 74%
    19:00 +12°C° 0 mm 4 mps 766 mmHg 74%
    20:00 +12°C° 0 mm 3 mps 766 mmHg 74%
    21:00 +12°C° 0 mm 3 mps 766 mmHg 74%
    22:00 +12°C° 0 mm 3 mps 766 mmHg 76%
    23:00 +12°C° 0 mm 3 mps 766 mmHg 78%
    Show more